contact:dominique.lefevre@mio.osupytheas.fr, maurice.libes@osupytheas.fr, didier.mallarino@osupytheas.fr
Project:EMSO http://www.emso-fr.org/EMSO-France
Depth: 2436.0 m
Title:EMSO Ligure Ouest : Data MII capteur MICROCAT
DateTime_Computer,Latitude,Longitude,Temperature,Conductivity,Pressure,DateTime_Instrument
DateTime_Computer,Latitude,Longitude,degC,S m-1,dbar,DateTime_Instrument
2023-12-03T00:02:36Z,42.805,6.029,13.3041,4.60113,2470.787,2023-12-03T02:05:05Z
2023-12-03T00:05:39Z,42.805,6.029,13.3042,4.60113,2470.787,2023-12-03T02:08:08Z
2023-12-03T00:08:42Z,42.805,6.029,13.3042,4.60112,2470.8,2023-12-03T02:11:11Z
2023-12-03T00:11:46Z,42.805,6.029,13.3043,4.60113,2470.787,2023-12-03T02:14:14Z
2023-12-03T00:14:49Z,42.805,6.029,13.3040,4.60113,2470.763,2023-12-03T02:17:17Z
2023-12-03T00:17:52Z,42.805,6.029,13.3038,4.60112,2470.763,2023-12-03T02:20:20Z
2023-12-03T00:20:55Z,42.805,6.029,13.3041,4.60113,2470.787,2023-12-03T02:23:24Z
2023-12-03T00:23:58Z,42.805,6.029,13.3043,4.60112,2470.8,2023-12-03T02:26:27Z
2023-12-03T00:27:01Z,42.805,6.029,13.3039,4.60113,2470.8,2023-12-03T02:29:30Z
2023-12-03T00:30:04Z,42.805,6.029,13.3039,4.60114,2470.8,2023-12-03T02:32:33Z
2023-12-03T00:33:07Z,42.805,6.029,13.3039,4.60113,2470.787,2023-12-03T02:35:36Z
2023-12-03T00:36:10Z,42.805,6.029,13.3041,4.60114,2470.763,2023-12-03T02:38:39Z
2023-12-03T00:39:13Z,42.805,6.029,13.3040,4.60113,2470.763,2023-12-03T02:41:42Z
2023-12-03T00:42:16Z,42.805,6.029,13.3041,4.60112,2470.787,2023-12-03T02:44:45Z
2023-12-03T00:45:19Z,42.805,6.029,13.3038,4.60114,2470.787,2023-12-03T02:47:48Z
2023-12-03T00:48:22Z,42.805,6.029,13.3039,4.60114,2470.787,2023-12-03T02:50:51Z
2023-12-03T00:51:26Z,42.805,6.029,13.3040,4.60114,2470.763,2023-12-03T02:53:54Z
2023-12-03T00:54:29Z,42.805,6.029,13.3040,4.60114,2470.787,2023-12-03T02:56:57Z
2023-12-03T00:57:32Z,42.805,6.029,13.3040,4.60114,2470.74,2023-12-03T03:00:00Z
2023-12-03T01:00:35Z,42.805,6.029,13.3039,4.60116,2470.754,2023-12-03T03:03:04Z
2023-12-03T01:03:38Z,42.805,6.029,13.3039,4.60114,2470.74,2023-12-03T03:06:07Z
2023-12-03T01:06:41Z,42.805,6.029,13.3039,4.60114,2470.787,2023-12-03T03:09:10Z
2023-12-03T01:09:44Z,42.805,6.029,13.3041,4.60112,2470.74,2023-12-03T03:12:13Z
2023-12-03T01:12:47Z,42.805,6.029,13.3039,4.60112,2470.763,2023-12-03T03:15:16Z
2023-12-03T01:15:50Z,42.805,6.029,13.3038,4.60112,2470.763,2023-12-03T03:18:19Z
2023-12-03T01:18:53Z,42.805,6.029,13.3041,4.60112,2470.74,2023-12-03T03:21:22Z
2023-12-03T01:21:56Z,42.805,6.029,13.3039,4.60112,2470.763,2023-12-03T03:24:25Z
2023-12-03T01:24:59Z,42.805,6.029,13.3039,4.60114,2470.777,2023-12-03T03:27:28Z
2023-12-03T01:28:02Z,42.805,6.029,13.3043,4.60113,2470.763,2023-12-03T03:30:31Z
2023-12-03T01:31:06Z,42.805,6.029,13.3039,4.60116,2470.777,2023-12-03T03:33:34Z
2023-12-03T01:34:09Z,42.805,6.029,13.3041,4.60113,2470.777,2023-12-03T03:36:37Z
2023-12-03T01:37:12Z,42.805,6.029,13.3040,4.60113,2470.74,2023-12-03T03:39:40Z
2023-12-03T01:40:15Z,42.805,6.029,13.3039,4.60112,2470.754,2023-12-03T03:42:44Z
2023-12-03T01:43:18Z,42.805,6.029,13.3036,4.60111,2470.763,2023-12-03T03:45:47Z
2023-12-03T01:46:21Z,42.805,6.029,13.3039,4.60113,2470.777,2023-12-03T03:48:50Z
2023-12-03T01:49:24Z,42.805,6.029,13.3037,4.60112,2470.74,2023-12-03T03:51:53Z
2023-12-03T01:52:27Z,42.805,6.029,13.3039,4.60113,2470.73,2023-12-03T03:54:56Z
2023-12-03T01:55:30Z,42.805,6.029,13.3037,4.60111,2470.763,2023-12-03T03:57:59Z
2023-12-03T01:58:33Z,42.805,6.029,13.3042,4.60112,2470.763,2023-12-03T04:01:02Z
2023-12-03T02:01:36Z,42.805,6.029,13.3034,4.60112,2470.763,2023-12-03T04:04:05Z
2023-12-03T02:04:39Z,42.805,6.029,13.3041,4.60111,2470.763,2023-12-03T04:07:08Z
2023-12-03T02:07:43Z,42.805,6.029,13.3041,4.60111,2470.763,2023-12-03T04:10:11Z
2023-12-03T02:10:46Z,42.805,6.029,13.3036,4.60112,2470.74,2023-12-03T04:13:14Z
2023-12-03T02:13:49Z,42.805,6.029,13.3042,4.60112,2470.74,2023-12-03T04:16:17Z
2023-12-03T02:16:52Z,42.805,6.029,13.3038,4.60112,2470.763,2023-12-03T04:19:20Z
2023-12-03T02:19:55Z,42.805,6.029,13.3034,4.60112,2470.74,2023-12-03T04:22:24Z
2023-12-03T02:22:58Z,42.805,6.029,13.3038,4.60112,2470.787,2023-12-03T04:25:27Z
2023-12-03T02:26:01Z,42.805,6.029,13.3037,4.60115,2470.74,2023-12-03T04:28:30Z
2023-12-03T02:29:04Z,42.805,6.029,13.3036,4.60111,2470.777,2023-12-03T04:31:33Z
2023-12-03T02:32:07Z,42.805,6.029,13.3037,4.60111,2470.74,2023-12-03T04:34:36Z
2023-12-03T02:35:10Z,42.805,6.029,13.3039,4.60112,2470.763,2023-12-03T04:37:39Z
2023-12-03T02:38:13Z,42.805,6.029,13.3041,4.60113,2470.754,2023-12-03T04:40:42Z
2023-12-03T02:41:16Z,42.805,6.029,13.3037,4.60112,2470.763,2023-12-03T04:43:45Z
2023-12-03T02:44:19Z,42.805,6.029,13.3041,4.60112,2470.717,2023-12-03T04:46:48Z
2023-12-03T02:47:23Z,42.805,6.029,13.3039,4.60110,2470.74,2023-12-03T04:49:51Z
2023-12-03T02:50:26Z,42.805,6.029,13.3038,4.60112,2470.74,2023-12-03T04:52:54Z
2023-12-03T02:53:29Z,42.805,6.029,13.3034,4.60113,2470.777,2023-12-03T04:55:57Z
2023-12-03T02:56:32Z,42.805,6.029,13.3040,4.60113,2470.74,2023-12-03T04:59:01Z
2023-12-03T02:59:35Z,42.805,6.029,13.3041,4.60112,2470.763,2023-12-03T05:02:04Z
2023-12-03T03:02:38Z,42.805,6.029,13.3040,4.60112,2470.74,2023-12-03T05:05:07Z
2023-12-03T03:05:41Z,42.805,6.029,13.3040,4.60112,2470.777,2023-12-03T05:08:10Z
2023-12-03T03:08:44Z,42.805,6.029,13.3039,4.60112,2470.763,2023-12-03T05:11:13Z
2023-12-03T03:11:47Z,42.805,6.029,13.3039,4.60112,2470.75,2023-12-03T05:14:16Z
2023-12-03T03:14:50Z,42.805,6.029,13.3038,4.60112,2470.787,2023-12-03T05:17:19Z
2023-12-03T03:17:53Z,42.805,6.029,13.3041,4.60112,2470.693,2023-12-03T05:20:22Z
2023-12-03T03:20:56Z,42.805,6.029,13.3037,4.60114,2470.763,2023-12-03T05:23:25Z
2023-12-03T03:23:59Z,42.805,6.029,13.3040,4.60112,2470.787,2023-12-03T05:26:28Z
2023-12-03T03:27:03Z,42.805,6.029,13.3039,4.60111,2470.763,2023-12-03T05:29:31Z
2023-12-03T03:30:06Z,42.805,6.029,13.3039,4.60113,2470.74,2023-12-03T05:32:34Z
2023-12-03T03:33:09Z,42.805,6.029,13.3039,4.60114,2470.754,2023-12-03T05:35:37Z
2023-12-03T03:36:12Z,42.805,6.029,13.3043,4.60113,2470.777,2023-12-03T05:38:41Z
2023-12-03T03:39:15Z,42.805,6.029,13.3039,4.60112,2470.74,2023-12-03T05:41:44Z
2023-12-03T03:42:18Z,42.805,6.029,13.3042,4.60112,2470.777,2023-12-03T05:44:47Z
2023-12-03T03:45:21Z,42.805,6.029,13.3039,4.60112,2470.763,2023-12-03T05:47:50Z
2023-12-03T03:48:24Z,42.805,6.029,13.3039,4.60112,2470.777,2023-12-03T05:50:53Z
2023-12-03T03:51:27Z,42.805,6.029,13.3041,4.60112,2470.777,2023-12-03T05:53:56Z
2023-12-03T03:54:30Z,42.805,6.029,13.3039,4.60111,2470.763,2023-12-03T05:56:59Z
2023-12-03T03:57:33Z,42.805,6.029,13.3039,4.60113,2470.763,2023-12-03T06:00:02Z
2023-12-03T04:00:36Z,42.805,6.029,13.3039,4.60112,2470.763,2023-12-03T06:03:05Z
2023-12-03T04:03:40Z,42.805,6.029,13.3040,4.60112,2470.763,2023-12-03T06:06:08Z
2023-12-03T04:06:43Z,42.805,6.029,13.3039,4.60112,2470.754,2023-12-03T06:09:11Z
2023-12-03T04:09:46Z,42.805,6.029,13.3040,4.60114,2470.787,2023-12-03T06:12:14Z
2023-12-03T04:12:49Z,42.805,6.029,13.3041,4.60112,2470.777,2023-12-03T06:15:17Z
2023-12-03T04:15:52Z,42.805,6.029,13.3040,4.60114,2470.763,2023-12-03T06:18:21Z
2023-12-03T04:18:55Z,42.805,6.029,13.3036,4.60114,2470.787,2023-12-03T06:21:24Z
2023-12-03T04:21:58Z,42.805,6.029,13.3041,4.60113,2470.74,2023-12-03T06:24:27Z
2023-12-03T04:25:01Z,42.805,6.029,13.3041,4.60112,2470.74,2023-12-03T06:27:30Z
2023-12-03T04:28:04Z,42.805,6.029,13.3039,4.60111,2470.763,2023-12-03T06:30:33Z
2023-12-03T04:31:07Z,42.805,6.029,13.3041,4.60111,2470.763,2023-12-03T06:33:36Z
2023-12-03T04:34:10Z,42.805,6.029,13.3036,4.60112,2470.8,2023-12-03T06:36:39Z
2023-12-03T04:37:13Z,42.805,6.029,13.3041,4.60113,2470.763,2023-12-03T06:39:42Z
2023-12-03T04:40:16Z,42.805,6.029,13.3037,4.60112,2470.763,2023-12-03T06:42:45Z
2023-12-03T04:43:20Z,42.805,6.029,13.3038,4.60113,2470.763,2023-12-03T06:45:48Z
2023-12-03T04:46:23Z,42.805,6.029,13.3043,4.60112,2470.763,2023-12-03T06:48:51Z
2023-12-03T04:49:26Z,42.805,6.029,13.3041,4.60112,2470.763,2023-12-03T06:51:54Z
2023-12-03T04:52:29Z,42.805,6.029,13.3038,4.60111,2470.754,2023-12-03T06:54:58Z
2023-12-03T04:55:32Z,42.805,6.029,13.3039,4.60112,2470.763,2023-12-03T06:58:01Z
2023-12-03T04:58:35Z,42.805,6.029,13.3040,4.60113,2470.74,2023-12-03T07:01:04Z
2023-12-03T05:01:38Z,42.805,6.029,13.3041,4.60112,2470.754,2023-12-03T07:04:07Z
2023-12-03T05:04:41Z,42.805,6.029,13.3037,4.60112,2470.74,2023-12-03T07:07:10Z
2023-12-03T05:07:44Z,42.805,6.029,13.3038,4.60112,2470.763,2023-12-03T07:10:13Z
2023-12-03T05:10:47Z,42.805,6.029,13.3038,4.60114,2470.74,2023-12-03T07:13:16Z
2023-12-03T05:13:50Z,42.805,6.029,13.3042,4.60114,2470.777,2023-12-03T07:16:19Z
2023-12-03T05:16:53Z,42.805,6.029,13.3041,4.60112,2470.777,2023-12-03T07:19:22Z
2023-12-03T05:19:56Z,42.805,6.029,13.3040,4.60112,2470.74,2023-12-03T07:22:25Z
2023-12-03T05:23:00Z,42.805,6.029,13.3036,4.60112,2470.754,2023-12-03T07:25:28Z
2023-12-03T05:26:03Z,42.805,6.029,13.3036,4.60114,2470.777,2023-12-03T07:28:31Z
2023-12-03T05:29:06Z,42.805,6.029,13.3041,4.60112,2470.777,2023-12-03T07:31:34Z
2023-12-03T05:32:09Z,42.805,6.029,13.3039,4.60112,2470.754,2023-12-03T07:34:38Z
2023-12-03T05:35:13Z,42.805,6.029,13.3041,4.60112,2470.763,2023-12-03T07:37:41Z
2023-12-03T05:38:16Z,42.805,6.029,13.3039,4.60113,2470.8,2023-12-03T07:40:44Z
2023-12-03T05:41:19Z,42.805,6.029,13.3041,4.60114,2470.763,2023-12-03T07:43:47Z
2023-12-03T05:44:22Z,42.805,6.029,13.3038,4.60112,2470.763,2023-12-03T07:46:51Z
2023-12-03T05:47:25Z,42.805,6.029,13.3043,4.60114,2470.74,2023-12-03T07:49:54Z
2023-12-03T05:50:28Z,42.805,6.029,13.3042,4.60113,2470.763,2023-12-03T07:52:57Z
2023-12-03T05:53:31Z,42.805,6.029,13.3039,4.60114,2470.763,2023-12-03T07:56:00Z
2023-12-03T05:56:34Z,42.805,6.029,13.3036,4.60110,2470.763,2023-12-03T07:59:03Z
2023-12-03T05:59:37Z,42.805,6.029,13.3039,4.60114,2470.763,2023-12-03T08:02:06Z
2023-12-03T06:02:40Z,42.805,6.029,13.3037,4.60112,2470.763,2023-12-03T08:05:09Z
2023-12-03T06:05:43Z,42.805,6.029,13.3039,4.60112,2470.8,2023-12-03T08:08:12Z
2023-12-03T06:08:46Z,42.805,6.029,13.3039,4.60112,2470.787,2023-12-03T08:11:15Z
2023-12-03T06:11:49Z,42.805,6.029,13.3042,4.60113,2470.787,2023-12-03T08:14:18Z
2023-12-03T06:14:53Z,42.805,6.029,13.3037,4.60112,2470.8,2023-12-03T08:17:21Z
2023-12-03T06:17:56Z,42.805,6.029,13.3034,4.60112,2470.763,2023-12-03T08:20:24Z
2023-12-03T06:20:59Z,42.805,6.029,13.3038,4.60112,2470.8,2023-12-03T08:23:27Z
2023-12-03T06:24:02Z,42.805,6.029,13.3039,4.60112,2470.81,2023-12-03T08:26:31Z
2023-12-03T06:27:05Z,42.805,6.029,13.3042,4.60112,2470.787,2023-12-03T08:29:34Z
2023-12-03T06:30:08Z,42.805,6.029,13.3042,4.60114,2470.81,2023-12-03T08:32:37Z
2023-12-03T06:33:11Z,42.805,6.029,13.3043,4.60113,2470.787,2023-12-03T08:35:40Z
2023-12-03T06:36:14Z,42.805,6.029,13.3040,4.60114,2470.81,2023-12-03T08:38:43Z
2023-12-03T06:39:17Z,42.805,6.029,13.3040,4.60112,2470.787,2023-12-03T08:41:46Z
2023-12-03T06:42:20Z,42.805,6.029,13.3040,4.60113,2470.81,2023-12-03T08:44:49Z
2023-12-03T06:45:23Z,42.805,6.029,13.3041,4.60112,2470.787,2023-12-03T08:47:52Z
2023-12-03T06:48:26Z,42.805,6.029,13.3042,4.60111,2470.81,2023-12-03T08:50:55Z
2023-12-03T06:51:30Z,42.805,6.029,13.3040,4.60112,2470.787,2023-12-03T08:53:58Z
2023-12-03T06:54:33Z,42.805,6.029,13.3039,4.60113,2470.833,2023-12-03T08:57:01Z
2023-12-03T06:57:36Z,42.805,6.029,13.3039,4.60111,2470.81,2023-12-03T09:00:04Z
2023-12-03T07:00:39Z,42.805,6.029,13.3042,4.60111,2470.81,2023-12-03T09:03:08Z
2023-12-03T07:03:42Z,42.805,6.029,13.3039,4.60112,2470.81,2023-12-03T09:06:11Z
2023-12-03T07:06:45Z,42.805,6.029,13.3039,4.60112,2470.833,2023-12-03T09:09:14Z
2023-12-03T07:09:48Z,42.805,6.029,13.3041,4.60112,2470.833,2023-12-03T09:12:17Z
2023-12-03T07:12:51Z,42.805,6.029,13.3041,4.60114,2470.787,2023-12-03T09:15:20Z
2023-12-03T07:15:54Z,42.805,6.029,13.3039,4.60112,2470.833,2023-12-03T09:18:23Z
2023-12-03T07:18:57Z,42.805,6.029,13.3039,4.60112,2470.833,2023-12-03T09:21:26Z
2023-12-03T07:22:00Z,42.805,6.029,13.3039,4.60112,2470.81,2023-12-03T09:24:29Z
2023-12-03T07:25:03Z,42.805,6.029,13.3041,4.60112,2470.81,2023-12-03T09:27:32Z
2023-12-03T07:28:06Z,42.805,6.029,13.3041,4.60112,2470.833,2023-12-03T09:30:35Z
2023-12-03T07:31:10Z,42.805,6.029,13.3039,4.60111,2470.857,2023-12-03T09:33:38Z
2023-12-03T07:34:13Z,42.805,6.029,13.3041,4.60112,2470.796,2023-12-03T09:36:41Z
2023-12-03T07:37:16Z,42.805,6.029,13.3038,4.60113,2470.787,2023-12-03T09:39:44Z
2023-12-03T07:40:19Z,42.805,6.029,13.3038,4.60114,2470.81,2023-12-03T09:42:48Z
2023-12-03T07:43:22Z,42.805,6.029,13.3041,4.60112,2470.833,2023-12-03T09:45:51Z
2023-12-03T07:46:25Z,42.805,6.029,13.3040,4.60112,2470.857,2023-12-03T09:48:54Z
2023-12-03T07:49:28Z,42.805,6.029,13.3039,4.60112,2470.81,2023-12-03T09:51:57Z
2023-12-03T07:52:31Z,42.805,6.029,13.3042,4.60112,2470.857,2023-12-03T09:55:00Z
2023-12-03T07:55:34Z,42.805,6.029,13.3039,4.60112,2470.857,2023-12-03T09:58:03Z
2023-12-03T07:58:37Z,42.805,6.029,13.3038,4.60111,2470.857,2023-12-03T10:01:06Z
2023-12-03T08:01:40Z,42.805,6.029,13.3039,4.60112,2470.833,2023-12-03T10:04:09Z
2023-12-03T08:04:43Z,42.805,6.029,13.3041,4.60112,2470.833,2023-12-03T10:07:12Z
2023-12-03T08:07:46Z,42.805,6.029,13.3039,4.60113,2470.833,2023-12-03T10:10:15Z
2023-12-03T08:10:50Z,42.805,6.029,13.3039,4.60112,2470.88,2023-12-03T10:13:18Z
2023-12-03T08:13:53Z,42.805,6.029,13.3043,4.60112,2470.857,2023-12-03T10:16:21Z
2023-12-03T08:16:56Z,42.805,6.029,13.3039,4.60112,2470.871,2023-12-03T10:19:24Z
2023-12-03T08:19:59Z,42.805,6.029,13.3043,4.60114,2470.871,2023-12-03T10:22:28Z
2023-12-03T08:23:02Z,42.805,6.029,13.3038,4.60112,2470.88,2023-12-03T10:25:31Z
2023-12-03T08:26:05Z,42.805,6.029,13.3041,4.60113,2470.894,2023-12-03T10:28:34Z
2023-12-03T08:29:08Z,42.805,6.029,13.3037,4.60112,2470.88,2023-12-03T10:31:37Z
2023-12-03T08:32:11Z,42.805,6.029,13.3041,4.60113,2470.847,2023-12-03T10:34:40Z
2023-12-03T08:35:14Z,42.805,6.029,13.3039,4.60112,2470.894,2023-12-03T10:37:43Z
2023-12-03T08:38:17Z,42.805,6.029,13.3039,4.60115,2470.894,2023-12-03T10:40:46Z
2023-12-03T08:41:20Z,42.805,6.029,13.3036,4.60116,2470.88,2023-12-03T10:43:49Z
2023-12-03T08:44:23Z,42.805,6.029,13.3043,4.60112,2470.871,2023-12-03T10:46:52Z
2023-12-03T08:47:27Z,42.805,6.029,13.3041,4.60115,2470.927,2023-12-03T10:49:55Z
2023-12-03T08:50:30Z,42.805,6.029,13.3038,4.60113,2470.904,2023-12-03T10:52:58Z
2023-12-03T08:53:33Z,42.805,6.029,13.3039,4.60114,2470.904,2023-12-03T10:56:01Z
2023-12-03T08:56:36Z,42.805,6.029,13.3040,4.60114,2470.88,2023-12-03T10:59:05Z
2023-12-03T08:59:39Z,42.805,6.029,13.3036,4.60112,2470.927,2023-12-03T11:02:08Z
2023-12-03T09:02:42Z,42.805,6.029,13.3039,4.60114,2470.88,2023-12-03T11:05:11Z
2023-12-03T09:05:45Z,42.805,6.029,13.3039,4.60114,2470.904,2023-12-03T11:08:14Z
2023-12-03T09:08:48Z,42.805,6.029,13.3039,4.60114,2470.88,2023-12-03T11:11:17Z
2023-12-03T09:11:51Z,42.805,6.029,13.3041,4.60114,2470.904,2023-12-03T11:14:20Z
2023-12-03T09:14:54Z,42.805,6.029,13.3039,4.60112,2470.88,2023-12-03T11:17:23Z
2023-12-03T09:17:57Z,42.805,6.029,13.3042,4.60112,2470.88,2023-12-03T11:20:26Z
2023-12-03T09:21:00Z,42.805,6.029,13.3037,4.60113,2470.94,2023-12-03T11:23:29Z
2023-12-03T09:24:04Z,42.805,6.029,13.3040,4.60114,2470.927,2023-12-03T11:26:32Z
2023-12-03T09:27:07Z,42.805,6.029,13.3038,4.60114,2470.904,2023-12-03T11:29:35Z
2023-12-03T09:30:10Z,42.805,6.029,13.3039,4.60113,2470.904,2023-12-03T11:32:38Z
2023-12-03T09:33:13Z,42.805,6.029,13.3041,4.60113,2470.94,2023-12-03T11:35:42Z
2023-12-03T09:36:16Z,42.805,6.029,13.3039,4.60114,2470.904,2023-12-03T11:38:45Z
2023-12-03T09:39:19Z,42.805,6.029,13.3039,4.60112,2470.904,2023-12-03T11:41:48Z
2023-12-03T09:42:22Z,42.805,6.029,13.3039,4.60113,2470.927,2023-12-03T11:44:51Z
2023-12-03T09:45:25Z,42.805,6.029,13.3042,4.60113,2470.94,2023-12-03T11:47:54Z
2023-12-03T09:48:28Z,42.805,6.029,13.3039,4.60112,2470.95,2023-12-03T11:50:57Z
2023-12-03T09:51:31Z,42.805,6.029,13.3041,4.60113,2470.927,2023-12-03T11:54:00Z
2023-12-03T09:54:34Z,42.805,6.029,13.3039,4.60112,2470.964,2023-12-03T11:57:03Z
2023-12-03T09:57:37Z,42.805,6.029,13.3038,4.60114,2470.95,2023-12-03T12:00:06Z
2023-12-03T10:00:41Z,42.805,6.029,13.3037,4.60112,2470.95,2023-12-03T12:03:09Z
2023-12-03T10:03:44Z,42.805,6.029,13.3039,4.60113,2470.927,2023-12-03T12:06:12Z
2023-12-03T10:06:47Z,42.805,6.029,13.3041,4.60112,2470.973,2023-12-03T12:09:15Z
2023-12-03T10:09:50Z,42.805,6.029,13.3039,4.60112,2470.94,2023-12-03T12:12:19Z
2023-12-03T10:12:53Z,42.805,6.029,13.3041,4.60114,2470.95,2023-12-03T12:15:22Z
2023-12-03T10:15:56Z,42.805,6.029,13.3041,4.60114,2470.973,2023-12-03T12:18:25Z
2023-12-03T10:18:59Z,42.805,6.029,13.3038,4.60115,2470.936,2023-12-03T12:21:28Z
2023-12-03T10:22:02Z,42.805,6.029,13.3037,4.60115,2470.987,2023-12-03T12:24:31Z
2023-12-03T10:25:05Z,42.805,6.029,13.3040,4.60115,2470.964,2023-12-03T12:27:34Z
2023-12-03T10:28:08Z,42.805,6.029,13.3038,4.60113,2470.964,2023-12-03T12:30:37Z
2023-12-03T10:31:11Z,42.805,6.029,13.3040,4.60112,2470.95,2023-12-03T12:33:40Z
2023-12-03T10:34:14Z,42.805,6.029,13.3039,4.60112,2470.987,2023-12-03T12:36:43Z
2023-12-03T10:37:18Z,42.805,6.029,13.3039,4.60112,2470.964,2023-12-03T12:39:46Z
2023-12-03T10:40:21Z,42.805,6.029,13.3039,4.60113,2470.973,2023-12-03T12:42:49Z
2023-12-03T10:43:24Z,42.805,6.029,13.3035,4.60113,2470.964,2023-12-03T12:45:52Z
2023-12-03T10:46:27Z,42.805,6.029,13.3036,4.60112,2470.973,2023-12-03T12:48:56Z
2023-12-03T10:49:30Z,42.805,6.029,13.3039,4.60112,2470.973,2023-12-03T12:51:59Z
2023-12-03T10:52:33Z,42.805,6.029,13.3038,4.60113,2470.973,2023-12-03T12:55:02Z
2023-12-03T10:55:36Z,42.805,6.029,13.3041,4.60112,2470.987,2023-12-03T12:58:05Z
2023-12-03T10:58:39Z,42.805,6.029,13.3036,4.60116,2470.95,2023-12-03T13:01:08Z
2023-12-03T11:01:42Z,42.805,6.029,13.3036,4.60113,2470.95,2023-12-03T13:04:11Z
2023-12-03T11:04:45Z,42.805,6.029,13.3039,4.60113,2470.927,2023-12-03T13:07:14Z
2023-12-03T11:07:48Z,42.805,6.029,13.3038,4.60112,2470.973,2023-12-03T13:10:17Z
2023-12-03T11:10:51Z,42.805,6.029,13.3041,4.60115,2470.95,2023-12-03T13:13:20Z
2023-12-03T11:13:55Z,42.805,6.029,13.3038,4.60114,2470.95,2023-12-03T13:16:23Z
2023-12-03T11:16:58Z,42.805,6.029,13.3039,4.60113,2470.973,2023-12-03T13:19:26Z
2023-12-03T11:20:01Z,42.805,6.029,13.3039,4.60115,2470.95,2023-12-03T13:22:29Z
2023-12-03T11:23:04Z,42.805,6.029,13.3041,4.60113,2470.927,2023-12-03T13:25:33Z
2023-12-03T11:26:07Z,42.805,6.029,13.3043,4.60113,2470.973,2023-12-03T13:28:36Z
2023-12-03T11:29:10Z,42.805,6.029,13.3038,4.60114,2470.95,2023-12-03T13:31:39Z
2023-12-03T11:32:13Z,42.805,6.029,13.3037,4.60114,2470.973,2023-12-03T13:34:42Z
2023-12-03T11:35:16Z,42.805,6.029,13.3039,4.60113,2470.973,2023-12-03T13:37:45Z
2023-12-03T11:38:19Z,42.805,6.029,13.3036,4.60116,2470.95,2023-12-03T13:40:48Z
2023-12-03T11:41:22Z,42.805,6.029,13.3039,4.60114,2470.973,2023-12-03T13:43:51Z
2023-12-03T11:44:25Z,42.805,6.029,13.3041,4.60113,2470.973,2023-12-03T13:46:54Z
2023-12-03T11:47:29Z,42.805,6.029,13.3040,4.60114,2470.95,2023-12-03T13:49:57Z
2023-12-03T11:50:32Z,42.805,6.029,13.3039,4.60112,2470.95,2023-12-03T13:53:00Z
2023-12-03T11:53:35Z,42.805,6.029,13.3038,4.60114,2470.927,2023-12-03T13:56:03Z
2023-12-03T11:56:38Z,42.805,6.029,13.3037,4.60114,2470.927,2023-12-03T13:59:06Z
2023-12-03T11:59:41Z,42.805,6.029,13.3037,4.60119,2470.95,2023-12-03T14:02:10Z
2023-12-03T12:02:44Z,42.805,6.029,13.3041,4.60114,2470.95,2023-12-03T14:05:13Z
2023-12-03T12:05:47Z,42.805,6.029,13.3038,4.60113,2470.95,2023-12-03T14:08:16Z
2023-12-03T12:08:50Z,42.805,6.029,13.3038,4.60114,2470.95,2023-12-03T14:11:19Z
2023-12-03T12:11:53Z,42.805,6.029,13.3040,4.60115,2470.95,2023-12-03T14:14:22Z
2023-12-03T12:14:56Z,42.805,6.029,13.3041,4.60114,2470.95,2023-12-03T14:17:25Z
2023-12-03T12:17:59Z,42.805,6.029,13.3035,4.60115,2470.927,2023-12-03T14:20:28Z
2023-12-03T12:21:02Z,42.805,6.029,13.3043,4.60116,2470.95,2023-12-03T14:23:31Z
2023-12-03T12:24:05Z,42.805,6.029,13.3041,4.60115,2470.95,2023-12-03T14:26:34Z
2023-12-03T12:27:09Z,42.805,6.029,13.3040,4.60113,2470.927,2023-12-03T14:29:37Z
2023-12-03T12:30:12Z,42.805,6.029,13.3039,4.60114,2470.95,2023-12-03T14:32:40Z
2023-12-03T12:33:15Z,42.805,6.029,13.3039,4.60114,2470.964,2023-12-03T14:35:44Z
2023-12-03T12:36:18Z,42.805,6.029,13.3037,4.60113,2470.927,2023-12-03T14:38:47Z
2023-12-03T12:39:21Z,42.805,6.029,13.3040,4.60113,2470.94,2023-12-03T14:41:50Z
2023-12-03T12:42:24Z,42.805,6.029,13.3043,4.60114,2470.927,2023-12-03T14:44:53Z
2023-12-03T12:45:27Z,42.805,6.029,13.3036,4.60114,2470.94,2023-12-03T14:47:56Z
2023-12-03T12:48:30Z,42.805,6.029,13.3041,4.60112,2470.927,2023-12-03T14:50:59Z
2023-12-03T12:51:33Z,42.805,6.029,13.3039,4.60113,2470.917,2023-12-03T14:54:02Z
2023-12-03T12:54:36Z,42.805,6.029,13.3039,4.60113,2470.927,2023-12-03T14:57:05Z
2023-12-03T12:57:39Z,42.805,6.029,13.3038,4.60114,2470.95,2023-12-03T15:00:08Z
2023-12-03T13:00:42Z,42.805,6.029,13.3041,4.60112,2470.927,2023-12-03T15:03:11Z
2023-12-03T13:03:46Z,42.805,6.029,13.3038,4.60113,2470.94,2023-12-03T15:06:14Z
2023-12-03T13:06:49Z,42.805,6.029,13.3038,4.60114,2470.904,2023-12-03T15:09:17Z
2023-12-03T13:09:52Z,42.805,6.029,13.3036,4.60113,2470.89,2023-12-03T15:12:20Z
2023-12-03T13:12:55Z,42.805,6.029,13.3040,4.60112,2470.94,2023-12-03T15:15:24Z
2023-12-03T13:15:58Z,42.805,6.029,13.3039,4.60114,2470.927,2023-12-03T15:18:27Z
2023-12-03T13:19:01Z,42.805,6.029,13.3039,4.60113,2470.917,2023-12-03T15:21:30Z
2023-12-03T13:22:04Z,42.805,6.029,13.3037,4.60114,2470.904,2023-12-03T15:24:33Z
2023-12-03T13:25:07Z,42.805,6.029,13.3039,4.60113,2470.904,2023-12-03T15:27:36Z
2023-12-03T13:28:10Z,42.805,6.029,13.3039,4.60114,2470.904,2023-12-03T15:30:39Z
2023-12-03T13:31:11Z,42.805,6.029,13.3040,4.60114,2470.927,2023-12-03T15:33:40Z
2023-12-03T13:34:14Z,42.805,6.029,13.3040,4.60113,2470.904,2023-12-03T15:36:43Z
2023-12-03T13:37:18Z,42.805,6.029,13.3039,4.60115,2470.904,2023-12-03T15:39:46Z
2023-12-03T13:40:21Z,42.805,6.029,13.3041,4.60114,2470.917,2023-12-03T15:42:49Z
2023-12-03T13:43:24Z,42.805,6.029,13.3035,4.60112,2470.917,2023-12-03T15:45:53Z
2023-12-03T13:46:27Z,42.805,6.029,13.3040,4.60112,2470.88,2023-12-03T15:48:56Z
2023-12-03T13:49:30Z,42.805,6.029,13.3037,4.60112,2470.917,2023-12-03T15:51:59Z
2023-12-03T13:52:33Z,42.805,6.029,13.3040,4.60112,2470.88,2023-12-03T15:55:02Z
2023-12-03T13:55:36Z,42.805,6.029,13.3039,4.60112,2470.917,2023-12-03T15:58:05Z
2023-12-03T13:58:39Z,42.805,6.029,13.3041,4.60114,2470.904,2023-12-03T16:01:08Z
2023-12-03T14:01:42Z,42.805,6.029,13.3039,4.60114,2470.894,2023-12-03T16:04:11Z
2023-12-03T14:04:45Z,42.805,6.029,13.3040,4.60112,2470.88,2023-12-03T16:07:14Z
2023-12-03T14:07:48Z,42.805,6.029,13.3037,4.60112,2470.89,2023-12-03T16:10:17Z
2023-12-03T14:10:51Z,42.805,6.029,13.3039,4.60113,2470.894,2023-12-03T16:13:20Z
2023-12-03T14:13:55Z,42.805,6.029,13.3039,4.60112,2470.904,2023-12-03T16:16:23Z
2023-12-03T14:16:58Z,42.805,6.029,13.3039,4.60112,2470.917,2023-12-03T16:19:26Z
2023-12-03T14:20:01Z,42.805,6.029,13.3039,4.60112,2470.917,2023-12-03T16:22:30Z
2023-12-03T14:23:04Z,42.805,6.029,13.3037,4.60112,2470.88,2023-12-03T16:25:33Z
2023-12-03T14:26:07Z,42.805,6.029,13.3038,4.60113,2470.894,2023-12-03T16:28:36Z
2023-12-03T14:29:10Z,42.805,6.029,13.3040,4.60113,2470.904,2023-12-03T16:31:39Z
2023-12-03T14:32:13Z,42.805,6.029,13.3039,4.60113,2470.917,2023-12-03T16:34:42Z
2023-12-03T14:35:16Z,42.805,6.029,13.3040,4.60113,2470.88,2023-12-03T16:37:45Z
2023-12-03T14:38:19Z,42.805,6.029,13.3041,4.60112,2470.904,2023-12-03T16:40:48Z
2023-12-03T14:41:22Z,42.805,6.029,13.3039,4.60110,2470.917,2023-12-03T16:43:51Z
2023-12-03T14:44:25Z,42.805,6.029,13.3036,4.60110,2470.904,2023-12-03T16:46:54Z
2023-12-03T14:47:28Z,42.805,6.029,13.3036,4.60112,2470.871,2023-12-03T16:49:57Z
2023-12-03T14:50:32Z,42.805,6.029,13.3039,4.60111,2470.857,2023-12-03T16:53:00Z
2023-12-03T14:53:35Z,42.805,6.029,13.3039,4.60113,2470.904,2023-12-03T16:56:03Z
2023-12-03T14:56:38Z,42.805,6.029,13.3039,4.60112,2470.857,2023-12-03T16:59:07Z
2023-12-03T14:59:41Z,42.805,6.029,13.3039,4.60112,2470.904,2023-12-03T17:02:10Z
2023-12-03T15:02:44Z,42.805,6.029,13.3036,4.60111,2470.857,2023-12-03T17:05:13Z